[[{"header":{"parameterUnit":"m.s-1","parameterCategory":1,"la1":30.2991,"la2":30.254,"lo1":-89.0895,"lo2":-89.0444,"dy":0.0017,"dx":0.0017,"nx":28,"ny":28,"refTime":"2025-04-13T03:00:00:Z","depth":0,"parameterNumber":2,"parameterNumberName":"U-component_of_WINDS"},"data":[0,0,0,0,0,0,0,0,0,0,0,0,0,0,0,0,0,0,0,0,0,0,0,0,0,0,0,0,0,0,0,0,0,0,0,0,0,0,0,0,0,0,0,0,0,0,0,0,0,0,0,0,0,0,0,0,0,0,-2.9493,-2.9494,0,-2.9612,-2.9614,-2.9615,-2.9642,-2.9642,-2.9641,-2.964,-2.9761,-2.9765,-2.9769,0,0,0,0,0,0,0,0,0,0,0,0,0,-2.9289,-2.9293,-2.9493,-2.9494,-2.9496,-2.9612,-2.9614,-2.9615,-2.9642,-2.9641,-2.964,-2.964,-2.976,-2.9764,-2.9769,0,0,0,0,0,0,0,0,0,0,0,0,0,-2.939,-2.9294,-2.9493,-2.9523,-2.9527,-2.9612,-2.9614,-2.9616,-2.9643,-2.9641,-2.964,-2.9639,-2.9758,-2.9764,-2.977,-2.9831,0,0,-2.9788,-2.9791,0,0,0,0,0,0,0,0,-2.9384,-2.9397,-2.9517,-2.9521,-2.9526,-2.9611,-2.9586,-2.9688,-2.9643,-2.9599,-2.964,-2.9638,-2.9712,-2.9722,-2.9747,-2.9837,-2.9842,-2.9789,-2.9792,-2.9795,-2.9797,0,0,0,0,0,0,0,-2.9377,-2.9392,-2.954,-2.9519,-2.9524,-2.9531,-2.9544,-2.9606,-2.9661,-2.9603,-2.9605,-2.9619,-2.9714,-2.9741,-2.975,-2.9844,-2.9788,-2.9794,-2.9797,-2.98,-2.9992,-2.9994,0,0,0,0,0,0,-2.9365,-2.9386,-2.9536,-2.9544,-2.9451,-2.9536,-2.9551,-2.9585,-2.966,-2.9671,-2.962,-2.962,-2.9731,-2.9743,-2.9754,-2.9832,-2.9795,-2.98,-2.9804,-2.9991,-2.9993,-2.9994,0,0,0,0,0,0,-2.936,-2.9378,-2.9531,-2.9466,-2.9486,-2.9541,-2.9579,-2.9588,-2.9615,-2.9673,-2.9683,-2.9637,-2.9731,-2.9746,-2.9812,-2.9836,-2.9803,-2.9809,-2.9989,-2.9991,-2.9994,-2.9986,0,0,0,0,0,0,-2.9354,-2.9376,-2.94,-2.9466,-2.9489,-2.9587,-2.9581,-2.9591,-2.9625,-2.9626,-2.9692,-2.9702,-2.9731,-2.9803,-2.9818,-2.9844,-2.9813,-2.9987,-2.999,-2.9993,-2.9985,-2.9988,-2.9991,0,0,0,0,0,-2.9347,-2.9392,-2.9401,-2.9419,-2.952,-2.9589,-2.9602,-2.9635,-2.9627,-2.9651,-2.9689,-2.9699,-2.9832,-2.981,-2.9827,-2.9855,-2.9986,-2.9989,-2.9993,-2.9983,-2.9987,-2.9991,0,0,0,0,0,0,-2.9326,-2.9401,-2.9411,-2.948,-2.9528,-2.9593,-2.9624,-2.9638,-2.9689,-2.9688,-2.9727,-2.9741,-2.9806,-2.9837,-2.9812,-2.9919,-2.9909,-2.9915,-2.9895,-2.99,-2.9903,-2.9893,-2.9818,0,0,0,0,0,-2.933,-2.938,-2.9443,-2.9497,-2.9521,-2.9569,-2.96,-2.9622,-2.9672,-2.9693,-2.9735,-2.9784,-2.9837,-2.987,-2.9922,-2.999,-3.0005,-3.0018,-3.0021,-3.0023,-3.0028,-3.0068,-3.0074,-3.0006,-3.0006,-3.0006,0,0,-2.9337,-2.9385,-2.9413,-2.9494,-2.9534,-2.9584,-2.9585,-2.9638,-2.9676,-2.9701,-2.9766,-2.9799,-2.9857,-2.9924,-2.9956,-2.9953,-3.0051,-3.0028,-3.0029,-3.0033,-3.0072,-3.0078,-3.0084,-3.0008,-3.0008,-3.0007,0,0,-2.9377,-2.9418,-2.9468,-2.9508,-2.9568,-2.96,-2.9612,-2.9677,-2.97,-2.9766,-2.9786,-2.9832,-2.9922,-2.9962,-2.9994,-3.0052,-3.0063,-3.0068,-3.0083,-3.0121,-3.0126,-3.0131,-3.0151,-3.0158,-3.0073,-3.0073,-3.0073,0,-2.9378,-2.9455,-2.9491,-2.9544,-2.9579,-2.9605,-2.9656,-2.9693,-2.9767,-2.9791,-2.9786,-2.9901,-2.9941,-3.0019,-3.0033,-3.0058,-3.0073,-3.0059,-3.0123,-3.0128,-3.0133,-3.0153,-3.016,-3.0073,-3.0073,-3.0073,-3.0073,0,-2.9454,-2.9507,-2.954,-2.9612,-2.9651,-2.9703,-2.9747,-2.9783,-2.9802,-2.9834,-2.9903,-2.9953,-3.0015,-3.0036,-3.0054,-3.0117,-3.0113,-3.0115,-3.0105,-3.0139,-3.0158,-3.0166,-3.0073,-3.0073,-3.0073,-3.0073,0,0,-2.948,-2.9574,-2.9585,-2.9618,-2.9688,-2.973,-2.9784,-2.9846,-2.9875,-2.9926,-2.9972,-3.0049,-3.0052,-3.0088,-3.0113,-3.0146,-3.0188,-3.0144,-3.0146,-3.015,-3.026,-3.0256,-3.0265,-3.0197,-3.0199,-3.02,-3.0255,0,-2.9528,-2.9624,-2.9659,-2.9738,-2.9788,-2.9815,-2.9861,-2.9909,-2.9942,-2.999,-3.0026,-3.0079,-3.008,-3.0102,-3.0136,-3.0175,-3.021,-3.0172,-3.0239,-3.0241,-3.0222,-3.0275,-3.0271,-3.032,-3.0263,-3.0264,-3.0265,0,-2.9594,-2.9647,-2.9731,-2.9796,-2.9818,-2.986,-2.992,-2.9965,-3.0021,-3.0043,-3.0085,-3.0107,-3.0165,-3.0153,-3.0233,-3.0206,-3.0236,-3.026,-3.0263,-3.0269,-3.0254,-3.0281,-3.0337,-3.0343,-3.0277,-3.0276,-3.0275,0,-2.9605,-2.9697,-2.9759,-2.9787,-2.9865,-2.9893,-2.9927,-2.9981,-3.0017,-3.007,-3.0094,-3.0153,-3.0185,-3.023,-3.0268,-3.0256,-3.0345,-3.0336,-3.0364,-3.0363,-3.0379,-3.0377,-3.0439,-3.0401,-3.0401,-3.0401,-3.0401,0,-2.9652,-2.9702,-2.9765,-2.9803,-2.986,-2.9902,-2.9957,-2.9993,-3.0042,-3.0087,-3.0115,-3.0157,-3.0206,-3.0254,-3.0285,-3.0346,-3.0361,-3.038,-3.0387,-3.0377,-3.0374,-3.0395,-3.0392,-3.0403,-3.0403,-3.0402,-3.0402,0,-2.9672,-2.9716,-2.9786,-2.9855,-2.9873,-2.9912,-2.9971,-3.0009,-3.0045,-3.0102,-3.0118,-3.0173,-3.0232,-3.0276,-3.0352,-3.0372,-3.0438,-3.0446,-3.0419,-3.0422,-3.0448,-3.0444,-3.0524,-3.0536,-3.0491,-3.0491,-3.0492,0,-2.9699,-2.9738,-2.9812,-2.9845,-2.9878,-2.9931,-2.9968,-3.0011,-3.0048,-3.0116,-3.0146,-3.0207,-3.0258,-3.0352,-3.0399,-3.0458,-3.0466,-3.049,-3.0475,-3.0464,-3.0466,-3.0462,-3.0466,-3.0492,-3.0492,-3.0492,-3.0492,0,-2.9741,-2.9762,-2.9814,-2.9874,-2.9918,-2.9967,-3.0017,-3.0042,-3.0094,-3.0135,-3.0196,-3.0236,-3.0315,-3.0375,-3.0439,-3.0474,-3.0492,-3.0497,-3.0507,-3.0495,-3.0478,-3.0487,-3.0423,-3.0495,-3.0494,-3.0494,-3.0494,-3.0494,-2.9765,-2.9801,-2.9859,-2.9917,-2.9959,-3.0006,-3.0045,-3.0086,-3.0138,-3.0205,-3.0228,-3.0292,-3.0348,-3.0436,-3.0472,-3.0523,-3.0522,-3.0536,-3.0539,-3.0541,-3.054,-3.0471,-3.0535,-3.0535,-3.0535,-3.0535,-3.0535,0,-2.9808,-2.9847,-2.99,-2.9969,-3.0015,-3.0029,-3.0086,-3.0123,-3.0178,-3.023,-3.028,-3.0351,-3.0411,-3.0463,-3.0525,-3.0555,-3.0565,-3.057,-3.0567,-3.0575,-3.0538,-3.0523,-3.0561,-3.0561,-3.0561,-3.0561,-3.0561,-3.0561,-2.9836,-2.9898,-2.9926,-3.001,-3.0049,-3.0112,-3.0143,-3.0186,-3.0228,-3.0306,-3.0356,-3.039,-3.0442,-3.0509,-3.0564,-3.0578,-3.0599,-3.0602,-3.0618,-3.0581,-3.0578,-3.0575,-3.0561,-3.0606,-3.0606,-3.0651,-3.0651,-3.0652]},{"header":{"parameterUnit":"m.s-1","parameterCategory":1,"la1":30.2991,"la2":30.254,"lo1":-89.0895,"lo2":-89.0444,"dy":0.0017,"dx":0.0017,"nx":28,"ny":28,"refTime":"2025-04-13T03:00:00:Z","depth":0,"parameterNumber":3,"parameterNumberName":"V-component_of_WINDS"},"data":[0,0,0,0,0,0,0,0,0,0,0,0,0,0,0,0,0,0,0,0,0,0,0,0,0,0,0,0,0,0,0,0,0,0,0,0,0,0,0,0,0,0,0,0,0,0,0,0,0,0,0,0,0,0,0,0,0,0,2.7191,2.7191,0,2.7179,2.7179,2.7179,2.7182,2.7182,2.7183,2.7183,2.7167,2.7167,2.7166,0,0,0,0,0,0,0,0,0,0,0,0,0,2.7216,2.7215,2.7191,2.7191,2.7191,2.7179,2.7179,2.7179,2.7182,2.7182,2.7183,2.7183,2.7167,2.7167,2.7166,0,0,0,0,0,0,0,0,0,0,0,0,0,2.7204,2.7215,2.7191,2.7191,2.7191,2.7179,2.7179,2.7179,2.7182,2.7182,2.7183,2.7183,2.7168,2.7167,2.7166,2.7152,0,0,2.7163,2.7162,0,0,0,0,0,0,0,0,2.7205,2.7203,2.7191,2.7191,2.7191,2.7183,2.7182,2.7169,2.7182,2.7185,2.7183,2.7183,2.7172,2.717,2.7167,2.7151,2.715,2.7163,2.7162,2.7162,2.7161,0,0,0,0,0,0,0,2.7206,2.7204,2.7186,2.7191,2.7191,2.7191,2.719,2.7179,2.7176,2.7185,2.7185,2.7184,2.7172,2.7168,2.7167,2.715,2.7163,2.7162,2.7161,2.7161,2.7123,2.7122,0,0,0,0,0,0,2.7207,2.7204,2.7187,2.7186,2.7199,2.7191,2.7189,2.7185,2.7177,2.7176,2.7184,2.7184,2.717,2.7168,2.7166,2.715,2.7162,2.7161,2.716,2.7123,2.7122,2.7122,0,0,0,0,0,0,2.7207,2.7205,2.7187,2.7195,2.7193,2.719,2.7185,2.7184,2.7181,2.7176,2.7175,2.7181,2.717,2.7168,2.7156,2.7149,2.716,2.7159,2.7123,2.7123,2.7122,2.7116,0,0,0,0,0,0,2.7208,2.7205,2.72,2.7195,2.7193,2.7177,2.7184,2.7184,2.7179,2.718,2.7173,2.7172,2.717,2.7157,2.7155,2.7148,2.7159,2.7124,2.7123,2.7122,2.7117,2.7115,2.7114,0,0,0,0,0,2.7209,2.7198,2.72,2.7198,2.7186,2.7177,2.7175,2.7175,2.7179,2.7174,2.7171,2.7172,2.7151,2.7156,2.7153,2.7146,2.7124,2.7123,2.7122,2.7117,2.7116,2.7114,0,0,0,0,0,0,2.7201,2.7197,2.7199,2.7187,2.7182,2.7177,2.7171,2.7173,2.7166,2.7166,2.7165,2.7163,2.7151,2.7147,2.7153,2.7132,2.7138,2.7136,2.7135,2.7133,2.7132,2.7133,2.7158,0,0,0,0,0,2.7199,2.7192,2.7189,2.7178,2.7176,2.7174,2.7169,2.717,2.7164,2.7162,2.7158,2.7152,2.7144,2.7139,2.7131,2.7117,2.7115,2.7111,2.7109,2.7108,2.7106,2.7099,2.7097,2.7119,2.7119,2.7119,0,0,2.7192,2.7189,2.7185,2.7176,2.7173,2.7165,2.7172,2.7163,2.7158,2.716,2.7149,2.7146,2.7139,2.7126,2.712,2.7123,2.71,2.7107,2.7106,2.7105,2.7098,2.7096,2.7094,2.7118,2.7118,2.7118,0,0,2.7176,2.7173,2.7164,2.7161,2.7156,2.7155,2.7153,2.7149,2.7147,2.7136,2.7138,2.7131,2.7117,2.7113,2.7109,2.7093,2.7094,2.7091,2.7083,2.7075,2.7074,2.7072,2.7066,2.7064,2.7089,2.7089,2.7089,0,2.7168,2.7158,2.7159,2.7151,2.7147,2.7151,2.7142,2.7138,2.7131,2.7128,2.7131,2.7115,2.7111,2.7097,2.7093,2.709,2.7087,2.7091,2.7074,2.7073,2.7071,2.7066,2.7063,2.7089,2.7089,2.7089,2.7089,0,2.7148,2.7141,2.7134,2.7128,2.7124,2.7115,2.7115,2.711,2.7111,2.711,2.7099,2.7095,2.7086,2.7083,2.7083,2.707,2.7072,2.7075,2.708,2.7069,2.7063,2.7061,2.7088,2.7088,2.7088,2.7088,0,0,2.7125,2.7122,2.7119,2.7117,2.7113,2.7107,2.7099,2.7092,2.7088,2.7083,2.7076,2.7065,2.7068,2.7064,2.7064,2.7058,2.7046,2.7061,2.7061,2.7058,2.703,2.7027,2.7025,2.7047,2.7047,2.7046,2.7031,0,2.7109,2.7095,2.7097,2.7083,2.7077,2.7081,2.7074,2.707,2.7069,2.7063,2.7062,2.7054,2.7059,2.7056,2.7051,2.7048,2.704,2.705,2.7039,2.7039,2.704,2.7022,2.7019,2.7004,2.7029,2.7028,2.7028,0,2.7087,2.7083,2.7069,2.7067,2.7065,2.7058,2.7053,2.7047,2.7043,2.7043,2.7039,2.704,2.7031,2.7038,2.7026,2.7033,2.7029,2.7027,2.7027,2.7025,2.7032,2.7019,2.7,2.6997,2.7025,2.7025,2.7025,0,2.7072,2.7063,2.7053,2.7051,2.7049,2.7044,2.7042,2.7039,2.7035,2.7031,2.7028,2.7022,2.7018,2.7013,2.7013,2.7018,2.7001,2.7007,2.7,2.7,2.6995,2.6995,2.6974,2.6994,2.6994,2.6994,2.6994,0,2.7052,2.7044,2.7047,2.7041,2.7031,2.7034,2.7024,2.7023,2.702,2.7014,2.7017,2.7011,2.7012,2.7006,2.7006,2.6996,2.6994,2.6993,2.6993,2.6992,2.6992,2.6989,2.6989,2.6993,2.6993,2.6993,2.6994,0,2.7033,2.7034,2.7025,2.7024,2.7023,2.7016,2.7015,2.7009,2.7009,2.7001,2.7,2.6999,2.6992,2.6992,2.6984,2.6984,2.6972,2.6973,2.6973,2.6973,2.6965,2.6966,2.694,2.6937,2.696,2.696,2.6959,0,2.702,2.7013,2.7012,2.7009,2.7008,2.7002,2.6999,2.7001,2.6997,2.6994,2.6988,2.6982,2.6977,2.6966,2.6964,2.6958,2.6959,2.6951,2.6958,2.6958,2.6958,2.6958,2.6958,2.6949,2.6948,2.6948,2.6948,0,2.6997,2.6998,2.6994,2.699,2.6986,2.6983,2.698,2.6977,2.6979,2.6975,2.6969,2.6965,2.6958,2.6951,2.6946,2.6943,2.6946,2.6946,2.6944,2.6942,2.6943,2.6942,2.6968,2.6946,2.6946,2.6946,2.6947,2.6947,2.698,2.6974,2.6973,2.6968,2.6967,2.6964,2.6959,2.696,2.6955,2.6949,2.6951,2.6944,2.6941,2.6934,2.6932,2.6926,2.6929,2.6926,2.6925,2.6924,2.6923,2.6945,2.6925,2.6925,2.6925,2.6925,2.6925,0,2.6956,2.6956,2.6952,2.6948,2.6945,2.6949,2.6947,2.6943,2.6937,2.6935,2.693,2.6923,2.6918,2.6917,2.6911,2.6907,2.6908,2.6905,2.6905,2.6904,2.6921,2.6923,2.6904,2.6904,2.6904,2.6905,2.6905,2.6905,2.6944,2.6935,2.6937,2.6928,2.6928,2.6922,2.692,2.6917,2.6916,2.6908,2.6904,2.6904,2.6902,2.6897,2.6892,2.6892,2.6889,2.6886,2.6886,2.6901,2.6903,2.6905,2.6907,2.6886,2.6886,2.687,2.687,2.687]}]]